| time (UTC) | temp C | wind direction | speed KPH | gust KPH | rain 1hr cm | rain 24hr cm | rain mn cm | humidity % | barometer mb |
| 20260504081506 | 19 | 169 | 6.4 | 19.3 | 0.00 | 0.00 | 0.00 | 62 | 1015.4 |
| 20260504044535 | 16 | 197 | 0.0 | 4.8 | 0.00 | 0.00 | 0.00 | 60 | 1015.5 |
| 20260504043028 | 16 | 197 | 0.0 | 0.0 | 0.00 | 0.00 | 0.00 | 58 | 1015.6 |
| 20260504041527 | 16 | 197 | 0.0 | 0.0 | 0.00 | 0.00 | 0.00 | 58 | 1015.5 |
| 20260504040024 | 16 | 197 | 0.0 | 0.0 | 0.00 | 0.00 | 0.00 | 58 | 1015.4 |
| 20260504034534 | 15 | 196 | 0.0 | 0.0 | 0.00 | 0.00 | 0.00 | 59 | 1015.3 |
| 20260504033023 | 15 | 197 | 0.0 | 0.0 | 0.00 | 0.00 | 0.00 | 59 | 1015.3 |
| 20260504031522 | 16 | 197 | 0.0 | 0.0 | 0.00 | 0.00 | 0.00 | 59 | 1015.2 |
| 20260504030036 | 16 | 197 | 0.0 | 1.6 | 0.00 | 0.00 | 0.00 | 60 | 1015.5 |
| 20260504024517 | 16 | 197 | 0.0 | 0.0 | 0.00 | 0.00 | 0.00 | 60 | 1015.7 |
| 20260504023018 | 16 | 197 | 0.0 | 0.0 | 0.00 | 0.00 | 0.00 | 60 | 1015.8 |
| 20260504021616 | 16 | 197 | 0.0 | 0.0 | 0.00 | 0.00 | 0.00 | 59 | 1015.8 |
| 20260504020017 | 16 | 196 | 0.0 | 3.2 | 0.00 | 0.00 | 0.00 | 60 | 1015.7 |
| 20260504014530 | 16 | 91 | 1.6 | 8.0 | 0.00 | 0.00 | 0.00 | 60 | 1015.6 |
| 20260504013010 | 16 | 124 | 1.6 | 6.4 | 0.00 | 0.00 | 0.00 | 59 | 1015.6 |
| 20260504011507 | 16 | 151 | 4.8 | 11.3 | 0.00 | 0.00 | 0.00 | 61 | 1015.7 |
| 20260504010005 | 16 | 192 | 1.6 | 11.3 | 0.00 | 0.00 | 0.00 | 63 | 1015.8 |
| 20260504004509 | 16 | 142 | 1.6 | 8.0 | 0.00 | 0.00 | 0.00 | 62 | 1016.2 |
| 20260504003100 | 16 | 130 | 3.2 | 9.7 | 0.00 | 0.00 | 0.00 | 59 | 1016.6 |
| 20260504003003 | 16 | 114 | 3.2 | 9.7 | 0.00 | 0.00 | 0.00 | 59 | 1016.6 |
| 20260504001607 | 17 | 164 | 0.0 | 1.6 | 0.00 | 0.00 | 0.00 | 58 | 1017.0 |
| 20260504000057 | 17 | 89 | 1.6 | 4.8 | 0.00 | 0.00 | 0.00 | 58 | 1016.9 |
| 20260503234555 | 17 | 156 | 0.0 | 4.8 | 0.00 | 0.00 | 0.00 | 59 | 1017.1 |
| 20260503233057 | 17 | 144 | 1.6 | 16.1 | 0.00 | 0.00 | 0.00 | 61 | 1017.1 |
| 20260503231556 | 17 | 126 | 8.0 | 22.5 | 0.00 | 0.00 | 0.00 | 63 | 1017.1 |
| 20260503230058 | 17 | 154 | 8.0 | 24.1 | 0.00 | 0.00 | 0.00 | 62 | 1016.9 |
| 20260503224548 | 17 | 186 | 6.4 | 16.1 | 0.00 | 0.00 | 0.00 | 62 | 1018.2 |
| 20260503223051 | 17 | 146 | 4.8 | 14.5 | 0.00 | 0.00 | 0.00 | 61 | 1017.9 |
| 20260503221545 | 17 | 248 | 4.8 | 19.3 | 0.00 | 0.00 | 0.00 | 60 | 1017.7 |
| 20260503220041 | 17 | 173 | 9.7 | 16.1 | 0.00 | 0.00 | 0.00 | 59 | 1017.5 |
| 20260503214539 | 17 | 110 | 8.0 | 17.7 | 0.00 | 0.00 | 0.00 | 57 | 1016.9 |
| 20260503213056 | 17 | 246 | 6.4 | 17.7 | 0.00 | 0.00 | 0.00 | 57 | 1016.9 |
| 20260503211537 | 17 | 208 | 6.4 | 17.7 | 0.00 | 0.00 | 0.00 | 56 | 1017.2 |
| 20260503210045 | 17 | 196 | 6.4 | 19.3 | 0.00 | 0.00 | 0.00 | 56 | 1017.1 |
| 20260503204547 | 17 | 169 | 4.8 | 14.5 | 0.00 | 0.00 | 0.00 | 56 | 1017.1 |
| 20260503203036 | 17 | 187 | 8.0 | 22.5 | 0.00 | 0.00 | 0.00 | 57 | 1017.2 |
| 20260503201537 | 17 | 291 | 6.4 | 22.5 | 0.00 | 0.00 | 0.00 | 57 | 1017.1 |
| 20260503200035 | 17 | 151 | 3.2 | 25.7 | 0.00 | 0.00 | 0.00 | 57 | 1017.1 |
| 20260503194536 | 17 | 172 | 6.4 | 19.3 | 0.00 | 0.00 | 0.00 | 57 | 1017.2 |
| 20260503193044 | 17 | 169 | 4.8 | 24.1 | 0.00 | 0.00 | 0.00 | 57 | 1017.3 |
| 20260503191532 | 17 | 243 | 6.4 | 19.3 | 0.00 | 0.00 | 0.00 | 58 | 1017.0 |
| 20260503190034 | 17 | 167 | 8.0 | 24.1 | 0.00 | 0.00 | 0.00 | 59 | 1016.8 |
| 20260503184537 | 17 | 149 | 11.3 | 24.1 | 0.00 | 0.00 | 0.00 | 58 | 1016.5 |
| 20260503183030 | 17 | 159 | 6.4 | 19.3 | 0.00 | 0.00 | 0.00 | 53 | 1016.5 |
| 20260503181529 | 18 | 223 | 8.0 | 22.5 | 0.00 | 0.00 | 0.00 | 48 | 1016.3 |
| 20260503180032 | 18 | 184 | 6.4 | 16.1 | 0.00 | 0.00 | 0.00 | 44 | 1016.3 |
| 20260503174528 | 18 | 188 | 3.2 | 25.7 | 0.00 | 0.00 | 0.00 | 44 | 1016.2 |
| 20260503173039 | 18 | 188 | 8.0 | 25.7 | 0.00 | 0.00 | 0.00 | 47 | 1016.2 |
| 20260503171525 | 18 | 153 | 4.8 | 16.1 | 0.00 | 0.00 | 0.00 | 53 | 1016.4 |
| 20260503120121 | 19 | 115 | 8.0 | 29.0 | 0.00 | 0.00 | 0.00 | 49 | 1019.0 |